Tracking 29892 objects as of 21-Nov-2024
HD Live streaming from Space Station
objects crossing your sky now

STARLINK-6089

Track STARLINK-6089 now!
10-day predictions
STARLINK-6089 is classified as:


NORAD ID: 56096
Int'l Code: 2023-046D
Perigee: 565.4 km
Apogee: 567.1 km
Inclination: 43.0 °
Period: 95.8 minutes
Semi major axis: 6937 km
RCS: Unknown
Launch date: March 29, 2023
Source: United States (US)
Launch site: AIR FORCE EASTERN TEST RANGE (AFETR)
Your satellite tracking list
Your tracking list is empty




NASA's NSSDC Master Catalog

Two Line Element Set (TLE):
1 56096U 23046D   24325.06490387  .00000084  00000-0  21309-4 0  9995
2 56096  43.0026 218.1479 0001231 269.8789  90.1912 15.02537963 90665
Source of the keplerian elements: AFSPC